CET,Max TemperatureF,Mean TemperatureF,Min TemperatureF,Max Dew PointF,MeanDew PointF,Min DewpointF,Max Humidity, Mean Humidity, Min Humidity, Max Sea Level PressureIn, Mean Sea Level PressureIn, Min Sea Level PressureIn, Max VisibilityMiles, Mean VisibilityMiles, Min VisibilityMiles, Max Wind SpeedMPH, Mean Wind SpeedMPH, Max Gust SpeedMPH,PrecipitationIn, CloudCover, Events, WindDirDegrees
2012-10-1,73,66,59,59,54,46,83,67,53,30.15,30.09,30.04,6,6,6,9,6,,0.00,6,Rain,81
2012-10-2,68,64,59,64,60,57,100,91,73,30.06,30.02,29.95,6,5,2,18,6,,0.00,6,Rain-Thunderstorm,329
2012-10-3,69,60,50,57,51,46,94,76,49,30.06,30.03,30.01,6,6,3,14,10,,0.00,5,Fog-Rain,266
2012-10-4,71,56,42,55,49,41,100,77,46,30.06,30.02,29.95,6,5,4,8,3,,0.00,4,Fog,149
2012-10-5,66,58,50,55,44,34,88,60,32,30.18,30.11,30.01,6,6,6,25,8,,0.00,5,,275
2012-10-6,73,60,46,55,49,45,93,74,50,30.12,30.08,30.01,6,6,5,12,5,,0.00,,Fog,155
2012-10-7,71,60,48,57,52,41,100,82,46,29.98,29.90,29.77,6,4,2,25,5,39,0.00,6,Fog-Rain-Thunderstorm,171
2012-10-8,57,48,39,41,38,34,93,68,44,30.15,30.09,29.98,6,6,6,26,16,,0.00,2,,291
2012-10-9,60,48,35,41,37,34,93,68,39,30.06,29.93,29.83,6,6,5,15,4,,0.00,4,Fog,187
2012-10-10,59,50,42,45,37,28,87,61,33,29.95,29.93,29.89,6,6,6,14,7,,0.00,6,,298
2012-10-11,57,48,39,39,36,32,87,66,38,30.01,29.98,29.95,6,5,4,12,6,,0.00,4,,301
2012-10-12,55,48,42,41,40,37,87,67,51,30.01,29.98,29.95,6,6,4,12,4,,0.00,7,,68
2012-10-13,62,54,46,50,46,41,88,73,55,30.04,29.98,29.92,6,6,5,12,4,,0.00,6,,323
2012-10-14,55,53,51,55,50,46,100,88,77,29.89,29.84,29.80,6,4,1,10,4,,0.00,7,Rain,116
2012-10-15,68,62,55,59,55,54,100,89,64,29.83,29.80,29.77,6,3,1,12,8,,0.00,7,Fog,111
2012-10-16,62,55,48,61,53,43,100,93,82,29.98,29.82,29.74,6,4,2,20,9,23,0.00,7,Rain,89
2012-10-17,60,51,42,48,44,41,100,78,51,30.21,30.14,30.01,6,5,2,13,8,,0.00,5,Rain,201
2012-10-18,66,57,48,50,46,41,94,74,46,30.27,30.21,30.18,4,4,2,16,8,,0.00,,,94
2012-10-19,68,54,41,54,47,41,100,76,52,30.21,30.16,30.12,5,5,5,8,4,,0.00,,Fog,87
2012-10-20,71,56,42,55,49,41,100,77,46,30.15,30.12,30.09,6,5,5,7,3,,0.00,,Fog,90
2012-10-21,69,55,41,50,48,41,100,77,46,30.18,30.16,30.12,5,3,2,8,4,,0.00,,Fog,93
2012-10-22,69,54,39,52,45,37,100,81,46,30.21,30.19,30.15,5,3,2,5,2,,0.00,,Fog,350
2012-10-23,68,54,39,52,45,37,100,80,46,30.21,30.19,30.15,5,3,0,6,2,,0.00,3,Fog,87
2012-10-24,53,46,39,48,44,39,100,91,76,30.21,30.13,30.06,5,2,0,9,5,,0.00,6,Fog,259
2012-10-25,51,48,46,45,43,41,87,81,71,30.06,29.97,29.86,6,5,3,12,8,,0.00,8,,263
2012-10-26,57,46,35,46,42,36,100,81,58,29.89,29.82,29.68,6,5,1,15,6,,0.00,6,Fog-Rain,171
2012-10-27,60,52,41,55,48,39,100,90,77,29.65,29.35,29.21,6,5,2,17,9,,0.00,7,Rain,91
2012-10-28,41,38,35,39,34,30,100,87,76,29.83,29.60,29.33,6,6,1,26,16,,0.00,7,Rain,311
2012-10-29,39,36,32,36,33,30,100,88,81,29.86,29.82,29.77,6,5,1,15,6,,0.00,7,Rain-Snow,307
2012-10-30,44,37,30,32,29,25,87,71,49,29.92,29.86,29.83,6,6,4,18,9,,0.00,4,,240
2012-10-31,44,37,30,37,32,28,93,81,65,29.98,29.93,29.86,6,6,4,15,8,,0.00,5,,98